timestamp,surface_pressure_avg,surface_temp_avg,battery_voltage,lat,long
2024-03-13 00:09:00+00:00,367.5145,0.5,11.53,47.84626,-54.09684
2024-03-13 00:19:00+00:00,372.0197,0.5,11.53,47.84626,-54.09684
2024-03-13 00:29:00+00:00,380.8179,0.51,11.53,47.84626,-54.09684
2024-03-13 00:39:00+00:00,390.4196,0.51,11.53,47.84626,-54.09684
2024-03-13 00:49:00+00:00,393.8046,0.51,11.53,47.84626,-54.09684
2024-03-13 00:59:00+00:00,396.0096,0.51,11.53,47.84626,-54.09684
2024-03-13 01:09:00+00:00,401.7313,0.5,11.53,47.84626,-54.09684
2024-03-13 01:19:00+00:00,407.8362,0.5,11.53,47.84626,-54.09684
2024-03-13 01:29:00+00:00,405.6512,0.5,11.53,47.84626,-54.09684
2024-03-13 01:39:00+00:00,403.2095,0.5,11.53,47.84626,-54.09684
2024-03-13 01:49:00+00:00,408.5446,0.5,11.53,47.84626,-54.09684
2024-03-13 01:59:00+00:00,409.1478,0.5,11.53,47.84626,-54.09684
2024-03-13 02:09:00+00:00,402.2546,0.51,11.53,47.84626,-54.09684
2024-03-13 02:19:00+00:00,396.9763,0.5,11.53,47.84626,-54.09684
2024-03-13 02:29:00+00:00,395.5646,0.51,11.53,47.84626,-54.09684
2024-03-13 02:39:00+00:00,392.19300000000004,0.5,11.53,47.84626,-54.09684
2024-03-13 02:49:00+00:00,385.87800000000004,0.5,11.53,47.84626,-54.09684
2024-03-13 02:59:00+00:00,379.8846,0.5,11.53,47.84626,-54.09684
2024-03-13 03:09:00+00:00,374.9246,0.5,11.53,47.84626,-54.09684
2024-03-13 03:19:00+00:00,371.0662,0.5,11.53,47.84626,-54.09684
2024-03-13 03:29:00+00:00,363.0763,0.52,11.53,47.84626,-54.09684
2024-03-13 03:39:00+00:00,353.4879,0.53,11.53,47.84626,-54.09684
2024-03-13 03:49:00+00:00,345.86800000000005,0.54,11.53,47.84626,-54.09684
2024-03-13 03:59:00+00:00,337.2246,0.51,11.53,47.84626,-54.09684
2024-03-13 04:09:00+00:00,327.133,0.55,11.53,47.84626,-54.09684
2024-03-13 04:19:00+00:00,317.3997,0.57,11.53,47.84626,-54.09684
2024-03-13 04:29:00+00:00,308.378,0.56,11.53,47.84626,-54.09684
2024-03-13 04:39:00+00:00,299.5231,0.56,11.53,47.84626,-54.09684
2024-03-13 04:49:00+00:00,287.5446,0.59,11.53,47.84626,-54.09684
2024-03-13 04:59:00+00:00,275.2264,0.6,11.53,47.84626,-54.09684
2024-03-13 05:09:00+00:00,264.2597,0.6,11.53,47.84626,-54.09684
2024-03-13 05:19:00+00:00,251.6481,0.6,11.53,47.84626,-54.09684
2024-03-13 05:29:00+00:00,238.9664,0.6,11.53,47.84626,-54.09684
2024-03-13 05:39:00+00:00,230.9648,0.62,11.53,47.84626,-54.09684
2024-03-13 05:49:00+00:00,223.0348,0.65,11.53,47.84626,-54.09684
2024-03-13 05:59:00+00:00,212.3665,0.66,11.53,47.84626,-54.09684
2024-03-13 06:09:00+00:00,204.4731,0.7,11.53,47.84626,-54.09684
2024-03-13 06:19:00+00:00,201.7031,0.71,11.53,47.84626,-54.09684
2024-03-13 06:29:00+00:00,195.8398,0.78,11.53,47.84626,-54.09684
2024-03-13 06:39:00+00:00,187.9315,0.8,11.53,47.84626,-54.09684
2024-03-13 06:49:00+00:00,185.5898,0.8,11.53,47.84626,-54.09684
2024-03-13 06:59:00+00:00,184.9315,0.8,11.53,47.84626,-54.09684
2024-03-13 07:09:00+00:00,181.1681,0.8,11.53,47.84626,-54.09684
2024-03-13 07:19:01+00:00,178.6198,0.8,11.53,47.84626,-54.09684
2024-03-13 07:29:01+00:00,178.9482,0.8,11.53,47.84626,-54.09684
2024-03-13 07:39:01+00:00,178.9648,0.8,11.53,47.84626,-54.09684
2024-03-13 07:49:01+00:00,179.8514,0.8,11.53,47.84626,-54.09684
2024-03-13 07:59:01+00:00,179.3298,0.8,11.53,47.84626,-54.09684
2024-03-13 08:09:01+00:00,179.3748,0.78,11.53,47.84626,-54.09684
2024-03-13 08:19:00+00:00,183.5648,0.7,11.53,47.84626,-54.09684
2024-03-13 08:29:00+00:00,187.2081,0.7,11.53,47.84626,-54.09684
2024-03-13 08:39:00+00:00,189.3665,0.76,11.53,47.84626,-54.09684
2024-03-13 08:49:00+00:00,195.2448,0.8,11.53,47.84626,-54.09684
2024-03-13 08:59:00+00:00,201.8781,0.79,11.53,47.84626,-54.09684
2024-03-13 09:09:00+00:00,204.5531,0.77,11.53,47.84626,-54.09684
2024-03-13 09:19:01+00:00,208.9948,0.7,11.53,47.84626,-54.09684
2024-03-13 09:29:01+00:00,215.6797,0.6,11.53,47.84626,-54.09684
2024-03-13 09:39:01+00:00,218.1298,0.6,11.53,47.84626,-54.09684
2024-03-13 09:49:01+00:00,221.7698,0.6,11.53,47.84626,-54.09684
2024-03-13 09:59:01+00:00,229.9131,0.6,11.53,47.84626,-54.09684
2024-03-13 10:09:01+00:00,232.7431,0.6,11.53,47.84626,-54.09684
2024-03-13 10:19:00+00:00,232.9914,0.59,11.53,47.84626,-54.09684
2024-03-13 10:29:00+00:00,242.0964,0.59,11.53,47.84626,-54.09684
2024-03-13 10:39:00+00:00,251.8914,0.6,11.53,47.84626,-54.09684
2024-03-13 10:49:00+00:00,254.5264,0.6,11.53,47.84626,-54.09684
2024-03-13 10:59:00+00:00,257.7197,0.6,11.53,47.84626,-54.09684
2024-03-13 11:09:00+00:00,269.9997,0.6,11.53,47.84626,-54.09684
2024-03-13 11:19:00+00:00,279.928,0.6,11.46,47.84626,-54.09684
2024-03-13 11:29:00+00:00,284.5131,0.6,11.46,47.84626,-54.09684
2024-03-13 11:39:00+00:00,293.8413,0.6,11.46,47.84626,-54.09684
2024-03-13 11:49:00+00:00,308.3098,0.6,11.46,47.84626,-54.09684
2024-03-13 11:59:00+00:00,319.043,0.59,11.46,47.84626,-54.09684
2024-03-13 12:09:00+00:00,328.4796,0.59,11.46,47.84626,-54.09684
2024-03-13 12:19:00+00:00,339.5147,0.59,11.53,47.84626,-54.09684
2024-03-13 12:29:00+00:00,350.1078,0.59,11.53,47.84626,-54.09684
2024-03-13 12:39:00+00:00,358.2546,0.59,11.53,47.84626,-54.09684
2024-03-13 12:49:00+00:00,363.8847,0.59,11.53,47.84626,-54.09684
2024-03-13 12:59:00+00:00,371.0946,0.58,11.53,47.84626,-54.09684
2024-03-13 13:09:00+00:00,377.963,0.58,11.53,47.84626,-54.09684
2024-03-13 13:19:00+00:00,381.5245,0.58,11.46,47.84626,-54.09684
2024-03-13 13:29:00+00:00,384.6395,0.58,11.46,47.84626,-54.09684
2024-03-13 13:39:00+00:00,389.8062,0.57,11.46,47.84626,-54.09684
2024-03-13 13:49:00+00:00,392.6696,0.57,11.46,47.84626,-54.09684
2024-03-13 13:59:00+00:00,393.1229,0.59,11.46,47.84626,-54.09684
2024-03-13 14:09:00+00:00,394.7046,0.7,11.46,47.84626,-54.09684
2024-03-13 14:19:01+00:00,395.0228,0.8,11.61,47.84626,-54.09684
2024-03-13 14:29:01+00:00,391.6479,0.83,11.61,47.84626,-54.09684
2024-03-13 14:39:01+00:00,388.1996,0.84,11.61,47.84626,-54.09684
2024-03-13 14:49:01+00:00,386.5679,0.82,11.61,47.84626,-54.09684
2024-03-13 14:59:01+00:00,382.6346,0.84,11.61,47.84626,-54.09684
2024-03-13 15:09:01+00:00,374.9445,0.86,11.61,47.84626,-54.09684
2024-03-13 15:19:00+00:00,370.4447,0.87,11.93,47.84626,-54.09684
2024-03-13 15:29:00+00:00,368.4612,0.8,11.93,47.84626,-54.09684
2024-03-13 15:39:00+00:00,362.0029,0.81,11.93,47.84626,-54.09684
2024-03-13 15:49:00+00:00,354.7963,0.85,11.93,47.84626,-54.09684
2024-03-13 15:59:00+00:00,349.9329,0.85,11.93,47.84626,-54.09684
2024-03-13 16:09:00+00:00,345.163,0.8,11.93,47.84626,-54.09684
2024-03-13 16:19:00+00:00,336.908,0.8,12.01,47.84626,-54.09684
2024-03-13 16:29:00+00:00,325.4247,0.86,12.01,47.84626,-54.09684
2024-03-13 16:39:00+00:00,312.6897,0.8,12.01,47.84626,-54.09684
2024-03-13 16:49:00+00:00,302.9431,0.82,12.01,47.84626,-54.09684
2024-03-13 16:59:00+00:00,295.2213,0.8,12.01,47.84626,-54.09684
2024-03-13 17:09:00+00:00,284.3297,0.8,12.01,47.84626,-54.09684
2024-03-13 17:19:00+00:00,271.1731,0.96,11.77,47.84626,-54.09684
2024-03-13 17:29:00+00:00,263.7281,1.0,11.77,47.84626,-54.09684
2024-03-13 17:39:00+00:00,255.1781,1.0,11.77,47.84626,-54.09684
2024-03-13 17:49:00+00:00,241.6748,1.0,11.77,47.84626,-54.09684
2024-03-13 17:59:00+00:00,229.4431,1.0,11.77,47.84626,-54.09684
2024-03-13 18:09:00+00:00,222.4748,0.98,11.77,47.84626,-54.09684
2024-03-13 18:19:00+00:00,214.4231,1.0,11.77,47.84626,-54.09684
2024-03-13 18:29:00+00:00,202.9032,0.9,11.77,47.84626,-54.09684
2024-03-13 18:39:00+00:00,195.8981,0.82,11.77,47.84626,-54.09684
2024-03-13 18:49:00+00:00,193.6965,1.0,11.77,47.84626,-54.09684
2024-03-13 18:59:00+00:00,187.9148,1.16,11.77,47.84626,-54.09684
2024-03-13 19:09:00+00:00,181.7281,1.2,11.77,47.84626,-54.09684
2024-03-13 19:19:00+00:00,181.7998,1.2,11.7,47.84626,-54.09684
2024-03-13 19:29:00+00:00,183.8565,1.0,11.7,47.84626,-54.09684
2024-03-13 19:39:00+00:00,182.2081,1.0,11.7,47.84626,-54.09684
2024-03-13 19:49:00+00:00,180.5415,1.0,11.7,47.84626,-54.09684
2024-03-13 19:59:00+00:00,183.1515,0.8,11.7,47.84626,-54.09684
2024-03-13 20:09:00+00:00,185.6631,0.7,11.7,47.84626,-54.09684
2024-03-13 20:19:00+00:00,188.1631,0.68,11.7,47.84626,-54.09684
2024-03-13 20:29:00+00:00,193.4832,0.68,11.7,47.84626,-54.09684
2024-03-13 20:39:00+00:00,197.6731,0.67,11.7,47.84626,-54.09684
2024-03-13 20:49:00+00:00,199.8031,0.69,11.7,47.84626,-54.09684
2024-03-13 20:59:00+00:00,206.7765,0.69,11.7,47.84626,-54.09684
2024-03-13 21:09:00+00:00,213.9881,0.69,11.7,47.84626,-54.09684
2024-03-13 21:19:00+00:00,219.1398,0.69,11.61,47.84626,-54.09684
2024-03-13 21:29:00+00:00,224.8247,0.68,11.61,47.84626,-54.09684
2024-03-13 21:39:00+00:00,231.8014,0.67,11.61,47.84626,-54.09684
2024-03-13 21:49:00+00:00,235.7564,0.63,11.61,47.84626,-54.09684
2024-03-13 21:59:00+00:00,238.528,0.65,11.61,47.84626,-54.09684
2024-03-13 22:09:00+00:00,244.6497,0.66,11.61,47.84626,-54.09684
2024-03-13 22:19:00+00:00,249.3797,0.68,11.61,47.84626,-54.09684
2024-03-13 22:29:00+00:00,251.1797,0.69,11.61,47.84626,-54.09684
2024-03-13 22:39:00+00:00,254.4698,0.7,11.61,47.84626,-54.09684
2024-03-13 22:49:00+00:00,261.1731,0.7,11.61,47.84626,-54.09684
2024-03-13 22:59:00+00:00,263.9581,0.7,11.61,47.84626,-54.09684
2024-03-13 23:09:00+00:00,267.1298,0.7,11.61,47.84626,-54.09684
2024-03-13 23:19:00+00:00,276.4181,0.7,11.61,47.84626,-54.09684
2024-03-13 23:29:00+00:00,285.4197,0.7,11.61,47.84626,-54.09684
2024-03-13 23:39:00+00:00,287.6664,0.7,11.61,47.84626,-54.09684
2024-03-13 23:49:00+00:00,293.3214,0.7,11.61,47.84626,-54.09684
2024-03-13 23:59:00+00:00,305.4513,0.7,11.61,47.84626,-54.09684
